{"data":{"norad_id":64181,"intl_designator":"2025-113M","name":"STARLINK-33917","alt_names":[],"object_type":"PAYLOAD","status":"ACTIVE","operator":null,"country":"US","launch_date":"2025-05-28","launch_site_code":"AFETR","launch_vehicle":null,"mission":null,"orbit_class":"UNKNOWN","rcs_meters":null,"size_class":null,"mass_kg":null,"dimensions":null,"purposes":["comms"],"wikipedia_slug":null,"has_3d_model":false,"image_url":null,"decayed_at":null,"tle_current":{"epoch":"2026-05-25T02:37:09.487776Z","epoch_age_seconds":62276,"freshness":"FRESH","line1":"1 64181U 25113M   26145.10913759  .00003701  00000+0  13702-3 0  9991","line2":"2 64181  53.1594  96.2823 0001112 100.8495 259.2631 15.30196136 56768","mean_motion":15.30196136,"eccentricity":0.0001112,"inclination_deg":53.1594,"raan_deg":96.2823,"arg_perigee_deg":100.8495,"mean_anomaly_deg":259.2631,"bstar":0.00013702,"rev_number":5676,"period_min":94.105583338109,"perigee_km":474.46451261805,"apogee_km":475.98870068417,"semimajor_km":6853.3636066511,"source":"CELESTRAK","updated_at":"2026-05-25T13:38:20.311606Z"}}}